Location: El Bakhil
(32.7726°N, 5.5387°W)
Time: 18:47:23
(UTC+00:00)

USA 238 DEB - Pass Details

Date: 03 March 2021
Orbit: 995 x 1217 km, 63.4° (Epoch: 01 April)

Event Time Altitude Azimuth Distance (km) Brightness Sun altitude
Rises 19:33:02 0° 175° (S) 3,695 6.5 -15.9°
Reaches altitude 10° 19:36:03 10° 162° (SSE) 2,755 5.7 -16.5°
Enters shadow 19:40:57 25° 112° (ESE) 1,901 4.5 -17.6°
